Preview of NWS' New Version of Forecast
This preview is not operational and should not be used for support decisions.

Regional Weather Roundup (RWR)

Issued by National Weather Service (NWS)

                            
000
ASUS46 KSEW 160110
RWRWA 

WASHINGTON REGIONAL WEATHER ROUNDUP
NATIONAL WEATHER SERVICE SEATTLE WA
600 PM PDT MON JUL 15 2019

NOTE:"FAIR" INDICATES FEW OR NO CLOUDS BELOW 12,000 FEET WITH NO 
SIGNIFICANT WEATHER AND/OR OBSTRUCTIONS TO VISIBILITY.

WAZ507-509-555>559-160200-
SEATTLE, TACOMA, EVERETT, AND VICINITY
  
CITY           SKY/WX    TMP DP  RH WIND       PRES   REMARKS
EVERETT        CLOUDY    69  55  60 SW6       30.06F                  
BOEING FIELD   PTSUNNY   71  56  58 S7        30.04F                  
RENTON         CLOUDY    71  59  65 S6        30.05F                  
SEATAC AIRPORT PTSUNNY   69  57  65 S8        30.06F                  
JBLM-MCCHORD   CLOUDY    67  67  99 CALM      30.06S                  
PUYALLUP       CLOUDY    68  63  83 S5        30.06F                  
BREMERTON      PTSUNNY   70  57  64 SW7       30.06S                  
JBLM-FT LEWIS  PTSUNNY   67  67  99 CALM      30.05F                  
TACOMA NARROWS PTSUNNY   68  58  70 S7        30.05F                  
$$
 
WAZ001-503-506-510-514-515-160200-
NORTH INTERIOR
  
CITY           SKY/WX    TMP DP  RH WIND       PRES   REMARKS
BELLINGHAM     SUNNY     69  55  60 S9G17     30.03S                  
FRIDAY HARBOR  MOSUNNY   61  54  77 SE6       30.04F                  
EASTSOUND      SUNNY     72  55  56 S9G16     30.01F                  
PORT ANGELES   CLOUDY    66  57  72 W10       30.06F                  
EDIZ HOOK      CLOUDY    63  56  78 W13       30.05S                  
PORT TOWNSEND  FAIR      68  57  68 NW5       30.04F                  
NAS WHIDBEY    PTSUNNY   66  55  67 SW10      30.08F                  
ARLINGTON      PTSUNNY   72  58  61 S10       30.04F                  
BURLINGTON     CLOUDY    73  59  60 VRB6      30.04S                  
$$
 
WAZ020-022-039-040-504-511-512-160200-
SOUTHWEST INTERIOR
  
CITY           SKY/WX    TMP DP  RH WIND       PRES   REMARKS
SHELTON        CLOUDY    69  59  70 W7        30.03F                  
OLYMPIA        CLOUDY    70  58  65 W5        30.05F                  
CHEHALIS       LGT RAIN  66  64  94 CALM      30.06S                  
KELSO          CLOUDY    69  63  81 CALM      30.06F                  
VANCOUVER      PTSUNNY   75  57  53 VRB7      30.04F                  
SCAPPOOSE, OR  PTSUNNY   74  61  63 NW6       30.03F                  
PORTLAND, OR   PTSUNNY   77  56  48 W8        30.04F                  
$$
 
WAZ021-516-517-160200-
WASHINGTON COAST
  
CITY           SKY/WX    TMP DP  RH WIND       PRES   REMARKS
FORKS          MOSUNNY   68  57  68 W8        30.06S                  
HOQUIAM        SUNNY     69  60  73 W13       30.07S                  
ASTORIA, OR    MOSUNNY   67  61  81 SW14      30.06S                  
$$
 
WAZ019-023-024-040-567>569-160200-
CASCADE MOUNTAINS AND COLUMBIA GORGE
  
CITY           SKY/WX    TMP DP  RH WIND       PRES   REMARKS
STAMPEDE PASS  CLOUDY    54  51  90 VRB5      30.12S                  
TROUTDALE, OR  PTSUNNY   77  59  53 CALM      30.04F                  
HOOD RIVER, OR CLOUDY    77  54  44 NW13G18   30.03S                  
THE DALLES, OR SUNNY     76  54  46 NW23G31   29.98S                  
$$

WAZ026-027-041>044-520-521-160200-
EAST SLOPES
  
CITY           SKY/WX    TMP DP  RH WIND       PRES   REMARKS
OMAK           PTSUNNY   80  46  30 SE13      29.93F                  
WENATCHEE      CLOUDY    77  47  34 S8        29.94F                  
ELLENSBURG     CLOUDY    74  51  44 NW17      29.99S                  
YAKIMA         PTSUNNY   80  51  36 CALM      29.96F                  
SUNNYSIDE ARPT MOCLDY    80  56  43 W6        29.95F                  
YAKIMA TC      FAIR      80  48  32 W7        29.95F                  
$$

WAZ028-034-035-160200-
COLUMBIA BASIN
  
CITY           SKY/WX    TMP DP  RH WIND       PRES   REMARKS
EPHRATA        PTSUNNY   78  47  33 SW10      29.95S                  
MOSES LAKE     MOSUNNY   79  49  34 S9        29.96F                  
PASCO          MOSUNNY   82  54  37 SW5       29.93F                  
RICHLAND ARPT  PTCLDY    84  54  35 S6        29.92                   
HERMISTON, OR  MOSUNNY   83  53  35 W12       29.94F                  
$$

WAZ036>038-160200-
NORTHEAST WASHINGTON
  
CITY           SKY/WX    TMP DP  RH WIND       PRES   REMARKS
SPOKANE GEIGER CLOUDY    70  45  40 S8        30.01F                  
SPOKANE FELTS  CLOUDY    72  48  42 SE5       30.00F                  
FAIRCHILD AFB  CLOUDY    70  45  40 SW9       30.01F                  
COEURDALENE,ID LGT RAIN  66  55  67 N5        30.03F                  
DEER PARK      CLOUDY    68  51  54 E5        30.01F                  
$$

WAZ029>033-160200-
SOUTHEAST WASHINGTON
  
CITY           SKY/WX    TMP DP  RH WIND       PRES   REMARKS
PULLMAN        LGT RAIN  68  50  52 NW5       30.04R                  
LEWISTON, ID   CLOUDY    77  46  33 NW14      29.97R                  
WALLA WALLA    LGT RAIN  76  51  41 SW7       29.98F                  
PENDLETON, OR  PTSUNNY   76  52  43 VRB5      29.99F                  
$$